This is the latest recevied weather packets stored in our database for station/object KD2RHT-13. If no packets are shown the sender has not sent any weather packets the latest 10 day(s).
| Time | Temp. | Humidity | Pressure | Rain* | Wind** | Luminosity | Snow |
|---|---|---|---|---|---|---|---|
| 1777566687 | 11.11° C | 81% | 1011.4 hPa | 0 mm | - | 250 W/m² | - |
| 1777566385 | 11.67° C | 79% | 1011.1 hPa | 0 mm | - | 954 W/m² | - |
| 1777566082 | 11.11° C | 82% | 1011.1 hPa | 0 mm | - | 826 W/m² | - |
| 1777565777 | 11.11° C | 80% | 1011.4 hPa | 0 mm | - | 446 W/m² | - |
| 1777565474 | 11.67° C | 79% | 1010.7 hPa | 0 mm | - | 450 W/m² | - |
| 1777565171 | 11.67° C | 80% | 1010.7 hPa | 0 mm | - | 659 W/m² | - |
| 1777564867 | 11.67° C | 81% | 1011.1 hPa | 0 mm | - | 468 W/m² | - |
| 1777564567 | 10.56° C | 84% | 1011.1 hPa | 0 mm | - | 1030 W/m² | - |
| 1777564263 | 10.56° C | 84% | 1011.1 hPa | 0 mm | - | 573 W/m² | - |
| 1777563959 | 8.89° C | 86% | 1011.1 hPa | 0 mm | - | 304 W/m² | - |
| 1777563655 | 8.89° C | 88% | 1010.7 hPa | 0 mm | - | 246 W/m² | - |
| 1777563349 | 8.89° C | 88% | 1010.7 hPa | 0 mm | - | 235 W/m² | - |
| 1777563046 | 8.89° C | 89% | 1010.7 hPa | 0 mm | - | 255 W/m² | - |
| 1777562742 | 8.89° C | 89% | 1011.1 hPa | 0 mm | - | 259 W/m² | - |
| 1777562441 | 8.89° C | 89% | 1011.1 hPa | 0 mm | - | 246 W/m² | - |
| 1777562137 | 8.89° C | 90% | 1010.7 hPa | 0 mm | - | 175 W/m² | - |
| 1777561835 | 8.89° C | 92% | 1010.7 hPa | 0 mm | - | 257 W/m² | - |
| 1777561532 | 8.33° C | 92% | 1011.1 hPa | 0 mm | - | 334 W/m² | - |
| 1777561227 | 8.89° C | 93% | 1010.7 hPa | 0 mm | - | 218 W/m² | - |
| 1777560926 | 7.78° C | 92% | 1010.7 hPa | 0 mm | - | 229 W/m² | - |
| 1777560623 | 7.78° C | 93% | 1011.1 hPa | 0 mm | - | 249 W/m² | - |
| 1777560321 | 7.78° C | 94% | 1010.7 hPa | 0 mm | - | 186 W/m² | - |
| 1777560019 | 7.78° C | 94% | 1010.7 hPa | 0 mm | - | 222 W/m² | - |
| 1777559714 | 7.78° C | 95% | 1010.7 hPa | 0 mm | - | 197 W/m² | - |
| 1777559412 | 7.78° C | 95% | 1010.7 hPa | 0 mm | - | 256 W/m² | - |
* Rain latest hour (hover to see other rain measurements)
** Current wind speed in m/s (hover to see current wind gust speed)